Location: *
(49.3500°N, 12.6000°E)
Time: 21:33:27
(UTC+00:00)

STARLINK-61 - Pass Details

Date: 18 October 2019
Orbit: 530 x 533 km, 53.0° (Epoch: 20 November)

Event Time Altitude Azimuth Distance (km) Brightness Sun altitude
Rises 16:57:29 0° 258° (WSW) 2,672 9.5 -7.8°
Reaches altitude 10° 16:59:43 10° 261° (W) 1,783 8.0 -8.1°
Maximum altitude 17:03:45 64° 344° (NNW) 594 3.8 -8.8°
Enters shadow 17:07:33 11° 66° (ENE) 1,703 5.5 -9.4°
